Weather History for KTBR - January, 2014

Change the Weather History Date:

Sunday, January 19, 2014

  Actual Average (KSAV) Record (KSAV)
Temperature  
Mean Temperature 46 °F 49 °F  
Max Temperature 60 °F 60 °F 79 °F (1990)
Min Temperature 33 °F 39 °F 16 °F (1977)
Degree Days  
Heating Degree Days 18 16  
Month to date heating degree days 304  
Since 1 July heating degree days 994  
Cooling Degree Days 0 0  
Month to date cooling degree days 0  
Year to date cooling degree days 0  
Moisture  
Dew Point 26 °F    
Average Humidity 48    
Maximum Humidity 97    
Minimum Humidity 26    
Precipitation  
Precipitation 0.00 in 0.13 in 2.20 in (1991)
Month to date precipitation 2.18  
Year to date precipitation 2.18  
Sea Level Pressure  
Sea Level Pressure 30.07 in    
Wind  
Wind Speed 6 mph (WSW)    
Max Wind Speed 14 mph    
Max Gust Speed 21 mph    
Visibility 10 miles    
Events      
T = Trace of Precipitation, MM = Missing Value Source: NWS Daily Summary

Daily Weather History Graph

Daily Weather History Graph

Search for Another Location

Airport or City:

Trip Planner

Search our weather history database for the weather conditions in past years. The results will help you decide how hot, cold, wet, or windy it might be!

Date:

Astronomy

Jan. 19, 2014 Rise Set
Actual Time 7:27 AM EST 5:47 PM EST
Civil Twilight 7:01 AM EST 6:14 PM EST
Nautical Twilight 6:31 AM EST 6:44 PM EST
Astronomical Twilight 6:01 AM EST 7:13 PM EST
Moon 9:10 PM EST (1/19) 9:10 AM EST (1/19)
Length of Visible Light 11h 13m
Length of Day
10h 20m
Waning Gibbous, 89% of the Moon is Illuminated
Jan 19
Waning Gibbous
Jan 24
Last Quarter
Jan 30
New
Feb 6
First Quarter
Feb 14
Full

Hourly Weather History & Observations

Time (EST) Temp. Windchill Dew Point Humidity Pressure Visibility Wind Dir Wind Speed Gust Speed Precip Events Conditions
12:15 AM 36.7 °F 34.1 °F 15.6 °F 42% 30.10 in 10.0 mi SW 3.5 mph - N/A   Clear
12:35 AM 37.2 °F 33.6 °F 15.1 °F 40% 30.09 in 10.0 mi SSW 4.6 mph - N/A   Clear
12:55 AM 37.8 °F 35.3 °F 14.5 °F 39% 30.08 in 10.0 mi SSW 3.5 mph - N/A   Clear
1:15 AM 38.1 °F 33.7 °F 15.8 °F 40% 30.07 in 10.0 mi SSW 5.8 mph - N/A   Clear
1:35 AM 39.7 °F 34.3 °F 14.0 °F 35% 30.07 in 10.0 mi SSW 8.1 mph - N/A   Clear
1:55 AM 40.1 °F 38.0 °F 14.0 °F 35% 30.08 in 10.0 mi SW 3.5 mph - N/A   Clear
2:15 AM 40.1 °F 36.1 °F 14.2 °F 35% 30.08 in 10.0 mi WSW 5.8 mph - N/A   Clear
2:35 AM 40.1 °F 38.0 °F 13.8 °F 34% 30.08 in 10.0 mi WSW 3.5 mph - N/A   Clear
2:55 AM 39.4 °F 37.2 °F 14.4 °F 36% 30.08 in 10.0 mi SW 3.5 mph - N/A   Clear
3:15 AM 38.7 °F 35.2 °F 15.4 °F 39% 30.08 in 10.0 mi SW 4.6 mph - N/A   Clear
3:35 AM 38.7 °F 34.3 °F 16.2 °F 40% 30.08 in 10.0 mi SW 5.8 mph - N/A   Clear
3:55 AM 38.8 °F 34.6 °F 16.3 °F 40% 30.07 in 10.0 mi SW 5.8 mph - N/A   Clear
4:15 AM 38.3 °F 33.9 °F 17.2 °F 43% 30.07 in 10.0 mi SW 5.8 mph - N/A   Clear
4:35 AM 37.9 °F 33.5 °F 17.6 °F 44% 30.07 in 10.0 mi SW 5.8 mph - N/A   Clear
4:55 AM 37.8 °F 34.2 °F 18.1 °F 45% 30.07 in 10.0 mi SW 4.6 mph - N/A   Clear
5:15 AM 37.6 °F 32.3 °F 18.9 °F 47% 30.07 in 10.0 mi SSW 6.9 mph - N/A   Clear
5:35 AM 37.6 °F 33.1 °F 19.4 °F 48% 30.06 in 10.0 mi SSW 5.8 mph - N/A   Scattered Clouds
5:55 AM 37.8 °F 33.3 °F 19.8 °F 48% 30.06 in 10.0 mi SW 5.8 mph - N/A   Mostly Cloudy
6:15 AM 38.7 °F 33.6 °F 22.1 °F 51% 30.06 in 10.0 mi SW 6.9 mph - N/A   Mostly Cloudy
6:35 AM 39.6 °F 34.7 °F 23.9 °F 54% 30.06 in 10.0 mi SW 6.9 mph - N/A   Scattered Clouds
6:55 AM 40.1 °F 35.3 °F 25.3 °F 56% 30.06 in 10.0 mi SW 6.9 mph - N/A   Scattered Clouds
7:15 AM 40.5 °F 36.5 °F 26.6 °F 58% 30.07 in 10.0 mi WSW 5.8 mph - N/A   Overcast
7:35 AM 41.2 °F 37.3 °F 27.9 °F 59% 30.08 in 10.0 mi WSW 5.8 mph - N/A   Overcast
7:55 AM 41.7 °F 38.0 °F 29.1 °F 61% 30.07 in 10.0 mi SW 5.8 mph - N/A   Overcast
8:15 AM 42.3 °F 38.6 °F 29.8 °F 61% 30.08 in 10.0 mi SW 5.8 mph - N/A   Overcast
8:35 AM 43.2 °F 39.7 °F 30.7 °F 62% 30.09 in 10.0 mi SW 5.8 mph - N/A   Overcast
8:55 AM 44.4 °F 40.0 °F 31.5 °F 60% 30.09 in 10.0 mi WSW 8.1 mph - N/A   Overcast
9:15 AM 45.1 °F 40.8 °F 32.0 °F 60% 30.10 in 10.0 mi WSW 8.1 mph - N/A   Overcast
9:35 AM 48.0 °F - 32.2 °F 54% 30.09 in 10.0 mi WSW 8.1 mph - N/A   Mostly Cloudy
9:55 AM 50.0 °F - 32.9 °F 52% 30.09 in 10.0 mi WSW 11.5 mph - N/A   Scattered Clouds
10:15 AM 51.1 °F - 33.4 °F 51% 30.10 in 10.0 mi West 6.9 mph 19.6 mph N/A   Clear
10:35 AM 52.3 °F - 33.8 °F 49% 30.09 in 10.0 mi West 10.4 mph - N/A   Clear
10:55 AM 54.3 °F - 33.4 °F 45% 30.09 in 10.0 mi West 13.8 mph 17.3 mph N/A   Clear
11:15 AM 54.9 °F - 32.5 °F 43% 30.09 in 10.0 mi WNW 11.5 mph 16.1 mph N/A   Clear
11:35 AM 55.2 °F - 32.0 °F 41% 30.09 in 10.0 mi WNW 11.5 mph 19.6 mph N/A   Clear
11:55 AM 56.7 °F - 31.8 °F 39% 30.08 in 10.0 mi WSW 13.8 mph 17.3 mph N/A   Clear
12:15 PM 57.2 °F - 31.8 °F 38% 30.07 in 10.0 mi WNW 10.4 mph 16.1 mph N/A   Clear
12:35 PM 57.6 °F - 31.8 °F 38% 30.06 in 10.0 mi WSW 11.5 mph 16.1 mph N/A   Clear
12:55 PM 58.8 °F - 31.5 °F 36% 30.05 in 10.0 mi West 9.2 mph 18.4 mph N/A   Clear
1:15 PM 59.5 °F - 30.2 °F 33% 30.03 in 10.0 mi West 11.5 mph 17.3 mph N/A   Clear
1:35 PM 59.4 °F - 29.3 °F 32% 30.03 in 10.0 mi West 11.5 mph - N/A   Clear
1:55 PM 60.3 °F - 28.0 °F 29% 30.02 in 10.0 mi WSW 12.7 mph 19.6 mph N/A   Clear
2:15 PM 59.9 °F - 27.0 °F 29% 30.02 in 10.0 mi West 11.5 mph 17.3 mph N/A   Clear
2:35 PM 60.3 °F - 25.7 °F 27% 30.02 in 10.0 mi West 8.1 mph - N/A   Clear
2:55 PM 60.1 °F - 25.5 °F 27% 30.02 in 10.0 mi West 10.4 mph 20.7 mph N/A   Clear
3:15 PM 60.3 °F - 25.7 °F 27% 30.03 in 10.0 mi WNW 11.5 mph 16.1 mph N/A   Clear
3:35 PM 59.9 °F - 25.2 °F 26% 30.03 in 10.0 mi WNW 13.8 mph - N/A   Clear
3:55 PM 59.9 °F - 25.2 °F 26% 30.04 in 10.0 mi West 10.4 mph 19.6 mph N/A   Clear
4:15 PM 59.5 °F - 24.3 °F 26% 30.04 in 10.0 mi West 13.8 mph 17.3 mph N/A   Scattered Clouds
4:35 PM 58.6 °F - 24.3 °F 27% 30.04 in 10.0 mi West 11.5 mph - N/A   Scattered Clouds
4:55 PM 58.1 °F - 24.3 °F 27% 30.04 in 10.0 mi WNW 9.2 mph 16.1 mph N/A   Clear
5:15 PM 57.0 °F - 24.3 °F 28% 30.04 in 10.0 mi WNW 6.9 mph - N/A   Clear
5:35 PM 55.4 °F - 24.4 °F 30% 30.05 in 10.0 mi WNW 8.1 mph - N/A   Clear
5:55 PM 54.0 °F - 24.4 °F 32% 30.04 in 10.0 mi West 4.6 mph - N/A   Clear
6:15 PM 53.1 °F - 25.0 °F 34% 30.05 in 10.0 mi West 4.6 mph - N/A   Clear
6:35 PM 50.4 °F - 27.3 °F 41% 30.05 in 10.0 mi West 3.5 mph - N/A   Clear
6:55 PM 46.6 °F - 28.2 °F 49% 30.06 in 10.0 mi West 3.5 mph - N/A   Clear
7:15 PM 42.8 °F - 28.6 °F 57% 30.06 in 10.0 mi Calm Calm - N/A   Clear
7:55 PM 38.8 °F - 30.4 °F 72% 30.06 in 10.0 mi Calm Calm - N/A   Clear
8:15 PM 39.0 °F - 30.6 °F 72% 30.06 in 10.0 mi Calm Calm - N/A   Clear
8:35 PM 36.9 °F - 30.9 °F 79% 30.07 in 10.0 mi Calm Calm - N/A   Clear
8:55 PM 37.9 °F 35.5 °F 31.8 °F 79% 30.07 in 10.0 mi West 3.5 mph - N/A   Clear
9:15 PM 39.2 °F - 30.7 °F 72% 30.08 in 10.0 mi Calm Calm - N/A   Clear
9:35 PM 37.2 °F - 30.0 °F 75% 30.08 in 10.0 mi Calm Calm - N/A   Clear
9:55 PM 36.9 °F - 29.7 °F 75% 30.08 in 10.0 mi Calm Calm - N/A   Clear
10:15 PM 34.0 °F - 30.0 °F 85% 30.08 in 10.0 mi Calm Calm - N/A   Clear
10:35 PM 34.3 °F - 33.4 °F 97% 30.08 in 10.0 mi Calm Calm - N/A   Clear
10:55 PM 34.3 °F - 29.3 °F 82% 30.08 in 10.0 mi Calm Calm - N/A   Clear
11:15 PM 33.3 °F - 29.5 °F 86% 30.07 in 10.0 mi Calm Calm - N/A   Clear
11:35 PM 34.3 °F - 29.3 °F 82% 30.08 in 10.0 mi Calm Calm - N/A   Clear
11:55 PM 34.9 °F - 29.7 °F 81% 30.08 in 10.0 mi Calm Calm - N/A   Clear